TimeCST,TemperatureF,Dew PointF,Humidity,Sea Level PressureIn,VisibilityMPH,Wind Direction,Wind SpeedMPH,Gust SpeedMPH,PrecipitationIn,Events,Conditions,WindDirDegrees,DateUTC
12:15 AM,32.9,32.9,100,29.75,5.0,ENE,6.9,-,N/A,,Overcast,70,2013-12-04 06:15:00
12:19 AM,33.8,33.8,100,29.76,4.0,ENE,6.9,-,N/A,,Overcast,70,2013-12-04 06:19:00
12:35 AM,32.7,32.7,100,29.76,3.0,ENE,6.9,-,N/A,,Overcast,70,2013-12-04 06:35:00
12:39 AM,33.8,33.8,100,29.76,3.0,East,9.2,-,N/A,,Overcast,80,2013-12-04 06:39:00
12:55 AM,32.5,32.5,100,29.75,3.0,ENE,6.9,-,N/A,,Overcast,70,2013-12-04 06:55:00
12:59 AM,33.8,33.8,100,29.76,3.0,East,9.2,-,N/A,,Overcast,80,2013-12-04 06:59:00
1:15 AM,32.5,32.5,100,29.76,3.0,ENE,6.9,-,N/A,,Overcast,70,2013-12-04 07:15:00
1:19 AM,33.8,33.8,100,29.76,3.0,ENE,8.1,-,N/A,,Overcast,70,2013-12-04 07:19:00
1:35 AM,32.5,32.5,100,29.76,3.0,ENE,6.9,-,N/A,,Overcast,70,2013-12-04 07:35:00
1:39 AM,33.8,33.8,100,29.75,3.0,ENE,6.9,-,N/A,,Overcast,70,2013-12-04 07:39:00
1:55 AM,32.5,32.5,100,29.74,4.0,East,9.2,-,N/A,,Overcast,80,2013-12-04 07:55:00
1:59 AM,33.8,33.8,100,29.74,4.0,East,9.2,-,N/A,,Overcast,80,2013-12-04 07:59:00
2:15 AM,32.5,32.5,100,29.73,5.0,East,9.2,-,N/A,,Overcast,90,2013-12-04 08:15:00
2:35 AM,32.5,32.5,100,29.73,7.0,East,6.9,-,N/A,,Overcast,100,2013-12-04 08:35:00
2:39 AM,33.8,33.8,100,29.74,7.0,East,9.2,-,N/A,,Overcast,90,2013-12-04 08:39:00
2:55 AM,32.5,32.5,100,29.72,5.0,East,10.4,-,N/A,,Overcast,90,2013-12-04 08:55:00
3:15 AM,32.5,32.5,100,29.72,5.0,ENE,8.1,-,N/A,,Overcast,70,2013-12-04 09:15:00
3:19 AM,33.8,33.8,100,29.73,5.0,ENE,6.9,-,N/A,,Overcast,60,2013-12-04 09:19:00
3:35 AM,32.2,32.2,100,29.72,5.0,ENE,8.1,-,N/A,,Overcast,60,2013-12-04 09:35:00
3:39 AM,32.0,32.0,100,29.72,5.0,ENE,5.8,-,N/A,,Overcast,60,2013-12-04 09:39:00
3:55 AM,32.0,32.0,100,29.72,4.0,ENE,6.9,-,N/A,,Overcast,60,2013-12-04 09:55:00
3:59 AM,32.0,32.0,100,29.72,4.0,ENE,5.8,-,N/A,,Overcast,60,2013-12-04 09:59:00
4:15 AM,32.0,32.0,100,29.70,4.0,East,8.1,-,N/A,,Overcast,80,2013-12-04 10:15:00
4:19 AM,32.0,32.0,100,29.70,4.0,East,8.1,-,N/A,,Overcast,80,2013-12-04 10:19:00
4:35 AM,32.0,32.0,100,29.71,5.0,NE,6.9,-,N/A,,Overcast,50,2013-12-04 10:35:00
4:39 AM,32.0,32.0,100,29.71,5.0,NE,8.1,-,N/A,,Overcast,50,2013-12-04 10:39:00
4:55 AM,32.0,32.0,100,29.72,5.0,ENE,4.6,-,N/A,,Overcast,60,2013-12-04 10:55:00
4:59 AM,32.0,32.0,100,29.72,5.0,ENE,6.9,-,N/A,,Overcast,70,2013-12-04 10:59:00
5:15 AM,32.0,32.0,100,29.72,4.0,East,5.8,-,N/A,,Overcast,80,2013-12-04 11:15:00
5:35 AM,32.0,32.0,100,29.71,3.0,ENE,5.8,-,N/A,,Overcast,70,2013-12-04 11:35:00
5:55 AM,32.0,32.0,100,29.70,3.0,ENE,10.4,-,N/A,,Overcast,70,2013-12-04 11:55:00
5:59 AM,32.0,32.0,100,29.70,3.0,East,8.1,-,N/A,,Overcast,80,2013-12-04 11:59:00
6:15 AM,32.0,32.0,100,29.69,5.0,East,8.1,-,N/A,,Overcast,80,2013-12-04 12:15:00
6:19 AM,32.0,32.0,100,29.69,7.0,East,9.2,-,N/A,,Overcast,80,2013-12-04 12:19:00
6:35 AM,32.0,32.0,100,29.70,5.0,ENE,6.9,-,N/A,,Overcast,70,2013-12-04 12:35:00
6:55 AM,32.0,32.0,100,29.70,7.0,East,6.9,-,N/A,,Overcast,80,2013-12-04 12:55:00
6:59 AM,32.0,32.0,100,29.69,7.0,East,9.2,-,N/A,,Overcast,80,2013-12-04 12:59:00
7:15 AM,32.0,32.0,100,29.68,5.0,East,9.2,-,N/A,,Overcast,90,2013-12-04 13:15:00
7:19 AM,32.0,32.0,100,29.68,4.0,East,10.4,-,N/A,,Overcast,90,2013-12-04 13:19:00
7:35 AM,32.2,32.2,100,29.67,3.0,East,10.4,17.3,N/A,,Overcast,90,2013-12-04 13:35:00
7:39 AM,32.0,32.0,100,29.67,3.0,East,10.4,-,N/A,,Overcast,90,2013-12-04 13:39:00
7:55 AM,32.4,32.4,100,29.66,3.0,East,10.4,-,N/A,,Overcast,80,2013-12-04 13:55:00
7:59 AM,32.0,32.0,100,29.66,3.0,East,10.4,16.1,N/A,,Overcast,80,2013-12-04 13:59:00
8:15 AM,32.5,32.5,100,29.67,3.0,East,9.2,-,N/A,,Overcast,90,2013-12-04 14:15:00
8:35 AM,32.9,32.9,100,29.67,1.5,East,11.5,-,N/A,,Overcast,90,2013-12-04 14:35:00
8:55 AM,32.9,32.9,100,29.66,1.8,East,8.1,-,N/A,,Overcast,90,2013-12-04 14:55:00
9:15 AM,32.9,32.9,100,29.66,1.2,East,8.1,-,N/A,,Overcast,90,2013-12-04 15:15:00
9:35 AM,33.1,33.1,100,29.67,1.8,East,9.2,-,N/A,,Overcast,90,2013-12-04 15:35:00
9:55 AM,33.4,33.4,100,29.67,1.8,East,5.8,-,N/A,,Overcast,80,2013-12-04 15:55:00
10:15 AM,33.8,33.8,100,29.66,1.2,East,3.5,-,N/A,,Overcast,90,2013-12-04 16:15:00
10:35 AM,33.8,33.8,100,29.64,1.5,East,8.1,-,N/A,,Overcast,80,2013-12-04 16:35:00
10:55 AM,34.0,34.0,100,29.62,1.0,East,8.1,-,N/A,,Light Drizzle,90,2013-12-04 16:55:00
11:15 AM,34.2,34.2,100,29.59,1.0,East,9.2,-,N/A,,Overcast,90,2013-12-04 17:15:00
11:35 AM,34.3,34.3,100,29.57,1.2,East,9.2,-,N/A,,Overcast,100,2013-12-04 17:35:00
11:55 AM,34.7,34.7,100,29.55,1.2,East,8.1,-,N/A,,Overcast,90,2013-12-04 17:55:00
12:15 PM,34.9,34.9,100,29.54,1.0,East,6.9,-,N/A,,Overcast,80,2013-12-04 18:15:00
12:35 PM,35.4,35.4,100,29.52,0.8,East,5.8,-,N/A,,Overcast,90,2013-12-04 18:35:00
12:55 PM,35.6,35.6,100,29.51,1.0,East,5.8,-,N/A,,Overcast,90,2013-12-04 18:55:00
1:15 PM,36.1,36.1,100,29.49,1.5,East,5.8,-,N/A,,Overcast,90,2013-12-04 19:15:00
1:35 PM,36.5,36.5,100,29.48,2.0,East,4.6,-,N/A,,Overcast,90,2013-12-04 19:35:00
1:55 PM,36.5,36.5,100,29.47,2.0,East,3.5,-,N/A,,Overcast,80,2013-12-04 19:55:00
2:15 PM,36.9,36.9,100,29.46,2.5,ENE,4.6,-,N/A,,Overcast,70,2013-12-04 20:15:00
2:35 PM,37.4,37.4,100,29.45,1.5,East,3.5,-,N/A,,Overcast,90,2013-12-04 20:35:00
2:55 PM,37.4,37.4,100,29.45,1.0,East,3.5,-,N/A,,Overcast,80,2013-12-04 20:55:00
3:15 PM,37.4,37.4,100,29.44,0.8,East,4.6,-,N/A,,Overcast,80,2013-12-04 21:15:00
3:35 PM,37.6,37.6,100,29.43,1.2,East,5.8,-,N/A,,Overcast,90,2013-12-04 21:35:00
3:55 PM,38.3,38.3,100,29.43,2.0,ESE,3.5,-,N/A,,Overcast,110,2013-12-04 21:55:00
4:15 PM,38.5,38.5,100,29.42,5.0,East,4.6,-,N/A,,Overcast,100,2013-12-04 22:15:00
4:35 PM,39.2,39.2,100,29.42,2.5,Calm,Calm,-,0.03,Rain,Rain,0,2013-12-04 22:35:00
4:55 PM,39.0,39.0,100,29.42,3.0,Calm,Calm,-,0.04,,Light Drizzle,0,2013-12-04 22:55:00
5:15 PM,40.1,40.1,100,29.43,3.0,Calm,Calm,-,N/A,,Drizzle,0,2013-12-04 23:15:00
5:35 PM,38.7,38.7,100,29.44,3.0,West,4.6,-,0.03,Rain,Light Rain,270,2013-12-04 23:35:00
5:55 PM,38.5,38.5,100,29.45,2.5,West,5.8,-,0.04,,Drizzle,270,2013-12-04 23:55:00
6:15 PM,38.3,38.3,100,29.46,2.5,West,5.8,-,N/A,Rain,Light Rain,270,2013-12-05 00:15:00
6:35 PM,37.4,37.4,100,29.46,5.0,West,8.1,-,N/A,,Overcast,260,2013-12-05 00:35:00
6:55 PM,37.0,37.0,100,29.46,10.0,West,5.8,-,N/A,,Overcast,260,2013-12-05 00:55:00
7:15 PM,36.5,36.5,100,29.45,10.0,WSW,8.1,-,N/A,,Overcast,250,2013-12-05 01:15:00
7:35 PM,35.8,35.6,99,29.47,10.0,WSW,5.8,-,N/A,,Overcast,250,2013-12-05 01:35:00
7:55 PM,35.2,33.8,94,29.50,10.0,West,10.4,-,N/A,,Overcast,260,2013-12-05 01:55:00
8:15 PM,34.9,32.9,92,29.50,10.0,West,12.7,21.9,N/A,,Overcast,270,2013-12-05 02:15:00
8:35 PM,34.3,32.9,94,29.51,10.0,West,12.7,18.4,N/A,,Overcast,260,2013-12-05 02:35:00
8:55 PM,33.8,32.0,93,29.53,10.0,West,11.5,18.4,N/A,,Overcast,260,2013-12-05 02:55:00
9:15 PM,32.9,30.7,92,29.55,10.0,West,13.8,23.0,N/A,,Overcast,270,2013-12-05 03:15:00
9:35 PM,32.0,29.5,90,29.54,10.0,West,13.8,20.7,N/A,,Overcast,260,2013-12-05 03:35:00
9:55 PM,32.0,27.1,82,29.56,10.0,West,13.8,21.9,N/A,,Overcast,260,2013-12-05 03:55:00
10:15 PM,31.8,26.6,81,29.58,10.0,WSW,13.8,20.7,N/A,,Overcast,250,2013-12-05 04:15:00
10:35 PM,31.6,26.4,81,29.60,10.0,WSW,10.4,23.0,N/A,,Overcast,250,2013-12-05 04:35:00
10:55 PM,31.3,26.4,82,29.60,10.0,WSW,12.7,18.4,N/A,,Overcast,250,2013-12-05 04:55:00
11:15 PM,31.1,25.7,80,29.61,10.0,WSW,11.5,19.6,N/A,,Overcast,240,2013-12-05 05:15:00
11:35 PM,30.2,24.3,79,29.62,10.0,West,12.7,20.7,N/A,,Overcast,260,2013-12-05 05:35:00
11:55 PM,29.3,23.5,79,29.64,10.0,WSW,16.1,23.0,N/A,,Overcast,250,2013-12-05 05:55:00